Regional Weather Roundup
Issued by NWS Cleveland, OH

Home | Current Version | Previous Version | Text Only | Print | Product List | Glossary Off
Versions: 1 2 3 4 5 6 7 8 9 10 11 12 13 14 15 16 17 18 19 20 21 22 23 24 25 26 27 28 29 30 31 32 33 34 35 36 37 38 39 40 41 42 43 44 45 46 47 48 49 50

000
ASUS41 KCLE 180010
RWRCLE
OHIO REGIONAL WEATHER ROUNDUP
NATIONAL WEATHER SERVICE CLEVELAND, OH
800 PM EDT WED SEP 17 2014

NOTE: "FAIR" INDICATES FEW OR NO CLOUDS BELOW 12,000 FEET WITH NO
SIGNIFICANT WEATHER AND/OR OBSTRUCTIONS TO VISIBILITY.

OHZ001>008-015>018-024>027-034-035-043-044-180100-
   NORTHWEST OHIO

CITY           SKY/WX    TMP DP  RH WIND       PRES   REMARKS
DEFIANCE       CLEAR     59  50  72 CALM      29.98S
FINDLAY        CLEAR     60  47  61 CALM      29.98S
TOLEDO EXPRESS MOCLDY    57  50  77 S5        29.98S
TOLEDO EXEC    MOCLDY    64  45  49 SW5       29.98S
LIMA           MOCLDY    60  52  74 CALM      29.99S
$$

OHZ009>014-019>023-028>033-038-089-180100-
   NORTHEAST OHIO

CITY           SKY/WX    TMP DP  RH WIND       PRES   REMARKS
CLE-HOPKINS    PTCLDY    60  49  66 N5        30.01S
CLE-LAKEFRONT  CLEAR     62  49  62 NW7       29.98S
CUY CO. ARPT   PTCLDY    59  50  72 NW7       30.00S
LORAIN-ELYRIA  CLEAR     60  50  69 N5        29.99F
ASHTABULA      CLEAR     54  50  86 CALM      30.00S
AKRON-CANTON   PTCLDY    59  46  62 CALM      29.98S
WOOSTER        MOCLDY    59  51  75 CALM      29.99S
MANSFIELD      CLEAR     59  46  62 NW3       29.99S
YOUNGSTOWN     PTCLDY    56  48  74 CALM      29.99S
$$

OHZ042-051>053-060>062-070>072-077>081-180100-
  SOUTHWEST OHIO

CITY           SKY/WX    TMP DP  RH WIND       PRES   REMARKS
CINC-COVINGTON PTCLDY    63  48  58 CALM      29.98S
CINC-LUNKEN    PTCLDY    63  51  65 N6        29.99S
HAMILTON       PTCLDY    55  53  93 CALM      30.00S
DAYTON         PTCLDY    62  47  57 SE3       30.00S
WRIGHT-PAT AFB CLEAR     60  49  68 CALM      29.99S
DAYTON GENERAL CLEAR     59  50  72 CALM      29.98F
WILMINGTON     CLEAR     59  48  67 N5        29.99F
$$

OHZ036-037-039>041-045>050-054>059-063>069-073>076-082>088-180100-
  CENTRAL AND SOUTHEAST OHIO

CITY           SKY/WX    TMP DP  RH WIND       PRES   REMARKS
COLUMBUS       PTCLDY    64  45  49 NW6       29.98R
OSU AIRPORT    PTCLDY    61  47  59 W5        29.98S
BOLTON FIELD   CLEAR     61  49  66 W3        29.99S
RICKENBACK AFB CLEAR     62  48  60 NW5       29.98S
NEWARK         CLEAR     56  50  80 CALM      29.98R
MARION         CLEAR     61  46  57 W5        29.99S
LANCASTER      CLEAR     56  50  80 CALM      29.98S
ZANESVILLE     CLEAR     61  50  67 CALM      29.98R
NEW PHILLY     CLEAR     57  51  80 CALM      29.98S
$$



USA.gov is the U.S. government's official web portal to all federal, state and local government web resources and services.